Salem, OR

12:08 AM PDT on July 25, 2017 (GMT -0700)
McNary

Weather History for KSLE - May, 2012

Change the Weather History Date:

Friday, May 18, 2012

  Actual Average Record
Temperature  
Mean Temperature 51 °F 57 °F  
Max Temperature 66 °F 68 °F 87 °F (1956)
Min Temperature 36 °F 45 °F 32 °F (1976)
Degree Days  
Heating Degree Days 14 8  
Month to date heating degree days 181 184  
Since 1 July heating degree days 4306 4427  
Cooling Degree Days 0 0  
Month to date cooling degree days 1 0  
Year to date cooling degree days 3 0  
Growing Degree Days 1 (Base 50)    
Moisture  
Dew Point 35 °F    
Average Humidity 57    
Maximum Humidity 92    
Minimum Humidity 22    
Precipitation  
Precipitation 0.00 in 0.06 in 0.66 in (2005)
Month to date precipitation 0.86 1.27  
Year to date precipitation 28.38 18.59  
Snow  
Snow 0.00 in - - ()
Month to date snowfall 0.0  
Snow Depth 0.00 in    
Sea Level Pressure  
Sea Level Pressure 30.15 in    
Wind  
Wind Speed 3 mph (North)    
Max Wind Speed 10 mph    
Max Gust Speed 15 mph    
Visibility 10 miles    
Events      
T = Trace of Precipitation, MM = Missing Value Source: NWS Daily Summary

Daily Weather History Graph

Daily Weather History Graph

Search for Another Location

Airport or City:

Trip Planner

Search our weather history database for the weather conditions in past years. The results will help you decide how hot, cold, wet, or windy it might be!

Date:

Astronomy

May. 18, 2012 Rise Set
Actual Time 5:39 AM PDT 8:38 PM PDT
Civil Twilight 5:04 AM PDT 9:12 PM PDT
Nautical Twilight 4:20 AM PDT 9:57 PM PDT
Astronomical Twilight 3:28 AM PDT 10:50 PM PDT
Moon 4:15 AM PDT (5/18) 6:49 PM PDT (5/18)
Length of Visible Light 16h 08m
Length of Day
14h 58m
Waning Crescent, 4% of the Moon is Illuminated
May 18
Waning Crescent
May 20
New
May 28
First Quarter
Jun 4
Full
Jun 11
Last Quarter

Hourly Weather History & Observations

Time (PDT) Temp. Windchill Dew Point Humidity Pressure Visibility Wind Dir Wind Speed Gust Speed Precip Events Conditions
12:56 AM 45.0 °F 43.5 °F 36.0 °F 71% 30.15 in 10.0 mi WSW 3.5 mph - N/A   Clear
1:56 AM 43.0 °F - 37.0 °F 80% 30.15 in 10.0 mi Calm Calm - N/A   Clear
2:56 AM 39.0 °F - 35.1 °F 86% 30.17 in 10.0 mi Calm Calm - N/A   Clear
3:56 AM 39.0 °F 36.8 °F 35.1 °F 86% 30.17 in 10.0 mi SW 3.5 mph - N/A   Clear
4:56 AM 39.0 °F - 35.1 °F 86% 30.18 in 10.0 mi Calm Calm - N/A   Clear
5:56 AM 37.9 °F - 35.1 °F 89% 30.18 in 10.0 mi Calm Calm - N/A   Clear
6:56 AM 39.9 °F 37.8 °F 37.0 °F 89% 30.19 in 10.0 mi SE 3.5 mph - N/A   Clear
7:56 AM 48.0 °F - 39.0 °F 71% 30.20 in 10.0 mi Calm Calm - N/A   Clear
8:56 AM 52.0 °F - 36.0 °F 54% 30.20 in 10.0 mi NNE 4.6 mph - N/A   Partly Cloudy
9:56 AM 52.0 °F - 36.0 °F 54% 30.20 in 10.0 mi North 4.6 mph - N/A   Partly Cloudy
10:56 AM 54.0 °F - 37.0 °F 53% 30.20 in 10.0 mi Calm Calm - N/A   Partly Cloudy
11:56 AM 55.0 °F - 36.0 °F 49% 30.19 in 10.0 mi NE 4.6 mph - N/A   Clear
12:56 PM 57.0 °F - 36.0 °F 45% 30.18 in 10.0 mi Variable 3.5 mph - N/A   Clear
1:56 PM 57.9 °F - 33.1 °F 39% 30.16 in 10.0 mi Calm Calm - N/A   Clear
2:56 PM 61.0 °F - 32.0 °F 34% 30.16 in 10.0 mi Calm Calm - N/A   Clear
3:56 PM 64.0 °F - 25.0 °F 23% 30.14 in 10.0 mi Variable 3.5 mph - N/A   Clear
4:56 PM 64.9 °F - 28.0 °F 25% 30.14 in 10.0 mi NW 9.2 mph - N/A   Clear
5:56 PM 64.9 °F - 30.0 °F 27% 30.11 in 10.0 mi NE 8.1 mph - N/A   Clear
6:56 PM 63.0 °F - 32.0 °F 31% 30.10 in 10.0 mi ENE 5.8 mph - N/A   Clear
7:56 PM 60.1 °F - 39.0 °F 46% 30.09 in 10.0 mi NNW 9.2 mph - N/A   Clear
8:56 PM 55.9 °F - 36.0 °F 47% 30.09 in 10.0 mi NW 4.6 mph - N/A   Clear
9:56 PM 53.1 °F - 37.0 °F 55% 30.10 in 10.0 mi Calm Calm - N/A   Clear
10:56 PM 48.9 °F - 37.0 °F 64% 30.10 in 10.0 mi Calm Calm - N/A   Clear
11:56 PM 46.9 °F - 37.0 °F 68% 30.10 in 10.0 mi Calm Calm - N/A   Clear